Location: Althorst
(53.6379°N, 10.7715°E)
Time: 06:04:31
(UTC+00:00)

Cosmos 2333 Rocket - Pass Details

Date: 10 December 2019
Orbit: 837 x 864 km, 70.8° (Epoch: 28 January)

Event Time Altitude Azimuth Distance (km) Brightness Sun altitude
Rises 19:18:16 0° 280° (W) 3,440 6.3 -37.2°
Reaches altitude 10° 19:21:38 10° 300° (WNW) 2,509 5.3 -37.7°
Enters shadow 19:25:08 17° 337° (NNW) 2,035 4.4 -38.2°
